COSMOS 2475 (743) 1 37869C 11064C 22225.99979167 .00000000 00000+0 00000+0 0 2255 2 37869 64.6676 120.5312 0022547 254.7733 330.3791 2.13101975 11 GLONASS127 [COD] 1 37869C 11064C 22226.99979167 .00000000 00000+0 00000+0 0 2267 2 37869 64.6677 120.4972 0022429 254.9048 17.4134 2.13102162 16 GLONASS127 [NER] 1 37869C 11064C 22226.00000000 .00000000 00000+0 00000+0 0 2260 2 37869 64.6674 120.5311 0022501 254.9120 330.4000 2.13102108 13